This demonstration page uses our WeatherBlox Daily Observations layout. Learn more.

Left ArrowRight Arrow

Hourly Observations for September 3, 2021

Temp ( °F °C ) Dew Point ( °F °C ) Humidity (%) Winds ( mph kmh ) Pressure ( in mb ) Visibility ( mi km ) Precip ( " mm )
12:41 am 00:41 Cloudy with Thunderstorms 71 21.7 68 20 90 90 S 20 31 29.85 1011 3 4 0.13 3.30
12:45 am 00:45 Cloudy with Strong Thunderstorms 71 21.7 68 20 90 90 S 23 37 29.85 1011 2 2 0.16 4.06
12:52 am 00:52 Cloudy with Strong Thunderstorms 71 21.7 69 20.6 94 94 S 23 37 29.85 1011 2 3 0.32 8.13
1:07 am 01:07 Cloudy with Rain 71 21.7 69 20.6 94 94 SSE 22 35 29.84 1010 3 5 0.16 4.06
1:52 am 01:52 Cloudy 71 21.7 69 20.6 94 94 SSE 16 26 29.83 1010 10 16 0.18 4.57
2:13 am 02:13 Cloudy 71 21.7 69 20.6 94 94 SSE 16 26 29.83 1010 10 16 0.00 0.00
2:44 am 02:44 Cloudy 72 22.2 69 20.6 91 91 S 14 22 29.83 1010 10 16 0.00 0.00
2:52 am 02:52 Cloudy 72 22.2 69 20.6 91 91 SSE 15 24 29.83 1010 10 16 0.00 0.00
3:09 am 03:09 Cloudy with Rain 71 21.7 70 21.1 96 96 S 13 20 29.82 1010 4 6 0.02 0.51
3:29 am 03:29 Cloudy with Rain 71 21.7 70 21.1 96 96 SSE 12 19 29.82 1010 5 8 0.15 3.81
3:52 am 03:52 Cloudy with Light Rain 71 21.7 70 21.1 96 96 S 8 13 29.82 1010 5 8 0.29 7.37
4:08 am 04:08 Cloudy 71 21.7 70 21.1 96 96 SSE 7 11 29.81 1009 7 11 0.01 0.25
4:52 am 04:52 Cloudy 72 22.2 70 21.1 94 94 W 3 6 29.83 1010 7 11 0.01 0.25
5:52 am 05:52 Cloudy 73 22.8 71 21.7 94 94 SW 6 9 29.85 1011 7 11 0.00 0.00
5:59 am 05:59 Cloudy 73 22.8 71 21.7 94 94 WSW 8 13 29.83 1010 10 16 0.00 0.00
6:32 am 06:32 Mostly Cloudy 72 22.2 68 20 87 87 W 7 11 29.84 1010 10 16 0.00 0.00
6:52 am 06:52 Mostly Cloudy 71 21.7 68 20 90 90 W 9 15 29.86 1011 10 16 0.00 0.00
7:02 am 07:02 Mostly Cloudy 70 21.1 67 19.4 90 90 WNW 9 15 29.86 1011 10 16 0.00 0.00
7:52 am 07:52 Mostly Cloudy 70 21.1 66 18.9 87 87 NW 9 15 29.87 1011 10 16 0.00 0.00
8:13 am 08:13 Mostly Cloudy 69 20.6 66 18.9 90 90 WNW 14 22 29.87 1012 10 16 0.00 0.00
8:24 am 08:24 Cloudy 69 20.6 66 18.9 90 90 WNW 13 20 29.88 1012 10 16 0.00 0.00
8:52 am 08:52 Mostly Cloudy 69 20.6 66 18.9 90 90 NNW 5 7 29.89 1012 10 16 0.00 0.00
9:35 am 09:35 Cloudy 71 21.7 66 18.9 84 84 VRB 3 6 29.88 1012 10 16 0.00 0.00
9:52 am 09:52 Cloudy 72 22.2 66 18.9 82 82 NW 6 9 29.90 1012 10 16 0.00 0.00
10:49 am 10:49 Cloudy 72 22 66 19 83 83 NW 13 20 29.91 1013 10 16 0.00 0.00
10:52 am 10:52 Cloudy 72 22.2 67 19.4 84 84 NW 10 17 29.91 1013 10 16 0.00 0.00
11:52 am 11:52 Cloudy 74 23.3 67 19.4 79 79 NW 12 19 29.90 1013 10 16 0.00 0.00
12:17 pm 12:17 Cloudy 72 22.2 66 18.9 82 82 NW 12 19 29.90 1012 10 16 0.00 0.00
12:52 pm 12:52 Cloudy 72 22.2 67 19.4 84 84 NW 12 19 29.91 1013 7 11 0.00 0.00
1:52 pm 13:52 Cloudy with Mist and Fog 71 21.7 67 19.4 87 87 WNW 12 19 29.92 1013 6 10 0.00 0.00
2:52 pm 14:52 Cloudy 73 22.8 67 19.4 81 81 NNW 9 15 29.91 1013 10 16 0.00 0.00
3:17 pm 15:17 Cloudy 73 22.8 67 19.4 81 81 NNW 9 15 29.89 1012 10 16 0.00 0.00
3:52 pm 15:52 Cloudy 73 22.8 67 19.4 81 81 NW 10 17 29.91 1013 10 16 0.00 0.00
4:52 pm 16:52 Cloudy 72 22.2 66 18.9 82 82 NW 13 20 29.91 1013 10 16 0.00 0.00
5:52 pm 17:52 Cloudy 72 22.2 66 18.9 82 82 NNW 8 13 29.90 1012 10 16 0.00 0.00
6:52 pm 18:52 Cloudy 71 21.7 66 18.9 84 84 NNW 8 13 29.91 1013 10 16 0.00 0.00
7:52 pm 19:52 Cloudy 70 21.1 66 18.9 87 87 NW 7 11 29.93 1013 10 16 0.00 0.00
8:52 pm 20:52 Cloudy 70 21.1 66 18.9 87 87 NW 6 9 29.95 1014 10 16 0.00 0.00
9:52 pm 21:52 Cloudy 69 20.6 65 18.3 87 87 N 7 11 29.95 1014 10 16 0.00 0.00
10:52 pm 22:52 Cloudy 69 20.6 65 18.3 87 87 N 5 7 29.95 1014 10 16 0.00 0.00
11:52 pm 23:52 Cloudy 68 20 65 18.3 90 90 NNW 5 7 29.95 1014 10 16 0.00 0.00

Powered by AerisWeather